�������C�����ː����j�^�v���󋵏��
Date,Time,Cs137(Bq/L),Cs134(Bq/L),�S��(Bq/L)
2020/05/24,00:00,-,-,36
2020/05/24,00:10,-,-,39
2020/05/24,00:20,-,-,40
2020/05/24,00:30,-,-,40
2020/05/24,00:40,-,-,41
2020/05/24,00:50,-,-,40
2020/05/24,01:00,-,-,39
2020/05/24,01:10,-,-,37
2020/05/24,01:20,-,-,37
2020/05/24,01:30,-,-,35
2020/05/24,01:40,-,-,34
2020/05/24,01:50,-,-,33
2020/05/24,02:00,-,-,30
2020/05/24,02:10,-,-,30
2020/05/24,02:20,-,-,28
2020/05/24,02:30,-,-,29
2020/05/24,02:40,-,-,31
2020/05/24,02:50,-,-,32
2020/05/24,03:00,-,-,33
2020/05/24,03:10,-,-,33
2020/05/24,03:20,-,-,33
2020/05/24,03:30,-,-,33
2020/05/24,03:40,-,-,32
2020/05/24,03:50,-,-,31
2020/05/24,04:00,-,-,32
2020/05/24,04:10,-,-,31
2020/05/24,04:20,-,-,33
2020/05/24,04:30,-,-,33
2020/05/24,04:40,-,-,31
2020/05/24,04:50,-,-,35
2020/05/24,05:00,-,-,35
2020/05/24,05:10,-,-,35
2020/05/24,05:20,-,-,34
2020/05/24,05:30,-,-,34
2020/05/24,05:40,-,-,38
2020/05/24,05:50,-,-,34
2020/05/24,06:00,-,-,35
2020/05/24,06:10,-,-,38
2020/05/24,06:20,-,-,35
2020/05/24,06:30,-,-,36
2020/05/24,06:40,-,-,37
2020/05/24,06:50,-,-,38
2020/05/24,07:00,-,-,39
2020/05/24,07:10,-,-,39
2020/05/24,07:20,-,-,41
2020/05/24,07:30,-,-,43
2020/05/24,07:40,-,-,41
2020/05/24,07:50,-,-,42
2020/05/24,08:00,-,-,43
2020/05/24,08:10,-,-,43
2020/05/24,08:20,-,-,43
2020/05/24,08:30,-,-,42
2020/05/24,08:40,-,-,39
2020/05/24,08:50,-,-,41
2020/05/24,09:00,-,-,40
2020/05/24,09:10,-,-,37
2020/05/24,09:20,-,-,39
2020/05/24,09:30,-,-,38
2020/05/24,09:40,-,-,43
2020/05/24,09:50,-,-,42
2020/05/24,10:00,-,-,42
2020/05/24,10:10,-,-,43
2020/05/24,10:20,-,-,45
2020/05/24,10:30,-,-,44
2020/05/24,10:40,-,-,42
2020/05/24,10:50,-,-,43
2020/05/24,11:00,-,-,45
2020/05/24,11:10,-,-,44
2020/05/24,11:20,-,-,42
2020/05/24,11:30,-,-,42
2020/05/24,11:40,-,-,41
2020/05/24,11:50,-,-,43
2020/05/24,12:00,-,-,37
2020/05/24,12:10,-,-,38
2020/05/24,12:20,-,-,39
2020/05/24,12:30,-,-,41
2020/05/24,12:40,-,-,38
2020/05/24,12:50,-,-,36
2020/05/24,13:00,-,-,40
2020/05/24,13:10,-,-,41
2020/05/24,13:20,-,-,38
2020/05/24,13:30,-,-,38
2020/05/24,13:40,-,-,39
2020/05/24,13:50,-,-,36
2020/05/24,14:00,-,-,35
2020/05/24,14:10,-,-,35
2020/05/24,14:20,-,-,36
2020/05/24,14:30,-,-,35
2020/05/24,14:40,-,-,37
2020/05/24,14:50,-,-,41
2020/05/24,15:00,-,-,40
2020/05/24,15:10,-,-,42
2020/05/24,15:20,-,-,43
2020/05/24,15:30,-,-,45
2020/05/24,15:40,-,-,43
2020/05/24,15:50,-,-,44
2020/05/24,16:00,-,-,44
2020/05/24,16:10,-,-,42
2020/05/24,16:20,-,-,39
2020/05/24,16:30,-,-,37
2020/05/24,16:40,-,-,41
2020/05/24,16:50,-,-,40
2020/05/24,17:00,-,-,40
2020/05/24,17:10,-,-,40
2020/05/24,17:20,-,-,41
2020/05/24,17:30,-,-,43
2020/05/24,17:40,-,-,40
2020/05/24,17:50,-,-,40
2020/05/24,18:00,-,-,41
2020/05/24,18:10,-,-,42
2020/05/24,18:20,-,-,40
2020/05/24,18:30,-,-,39
2020/05/24,18:40,-,-,42
2020/05/24,18:50,-,-,40
2020/05/24,19:00,-,-,38
2020/05/24,19:10,-,-,37
2020/05/24,19:20,-,-,39
2020/05/24,19:30,-,-,40
2020/05/24,19:40,-,-,37
2020/05/24,19:50,-,-,38
2020/05/24,20:00,-,-,38
2020/05/24,20:10,-,-,40
2020/05/24,20:20,-,-,40
2020/05/24,20:30,-,-,43
2020/05/24,20:40,-,-,45
2020/05/24,20:50,-,-,41
2020/05/24,21:00,-,-,43
2020/05/24,21:10,-,-,42
2020/05/24,21:20,-,-,45
2020/05/24,21:30,-,-,43
2020/05/24,21:40,-,-,42
2020/05/24,21:50,-,-,46
2020/05/24,22:00,-,-,46
2020/05/24,22:10,-,-,44
2020/05/24,22:20,-,-,42
2020/05/24,22:30,-,-,42
2020/05/24,22:40,-,-,44
2020/05/24,22:50,-,-,44
2020/05/24,23:00,-,-,42
2020/05/24,23:10,-,-,45
2020/05/24,23:20,-,-,45
2020/05/24,23:30,-,-,44
2020/05/24,23:40,-,-,41
2020/05/24,23:50,-,-,40
